Weather History for Lee's Summit, MO

Change the Weather History Date:

Tuesday, August 6, 2013

  Actual Average (KMKC) Record (KMKC)
Temperature  
Mean Temperature 79 °F -  
Max Temperature 88 °F 86 °F 105 °F (2006)
Min Temperature 71 °F 68 °F 61 °F (2004)
Cooling Degree Days 14    
Growing Degree Days 29 (Base 50)    
Moisture  
Dew Point 71 °F    
Average Humidity 81    
Maximum Humidity 94    
Minimum Humidity 59    
Precipitation  
Precipitation 0.95 in - - ()
Sea Level Pressure  
Sea Level Pressure 29.84 in    
Wind  
Wind Speed 6 mph (SSE)    
Max Wind Speed 13 mph    
Max Gust Speed 20 mph    
Visibility 9 miles    
Events Rain , Thunderstorm    
Averages and records for this station are not official NWS values.
T = Trace of Precipitation, MM = Missing Value Source: NWS Daily Summary

Daily Weather History Graph

Daily Weather History Graph

Search for Another Location

Airport:

Trip Planner

Search our weather history database for the weather conditions in past years. The results will help you decide how hot, cold, wet, or windy it might be!

Date:

Astronomy

Aug. 06, 2013 Rise Set
Actual Time 6:23 AM CDT 8:23 PM CDT
Civil Twilight 5:53 AM CDT 8:52 PM CDT
Nautical Twilight 5:18 AM CDT 9:27 PM CDT
Astronomical Twilight 4:39 AM CDT 10:06 PM CDT
Moon 6:14 AM CDT (8/6) 7:59 PM CDT (8/6)
Length of Visible Light 14h 58m
Length of Day
14h 00m
Waning Crescent, 0% of the Moon is Illuminated
Aug 6
Waning Crescent
Aug 6
New
Aug 14
First Quarter
Aug 20
Full
Aug 28
Last Quarter

Hourly Weather History & Observations

Time (CDT) Temp. Heat Index Dew Point Humidity Pressure Visibility Wind Dir Wind Speed Gust Speed Precip Events Conditions
12:53 AM 77.0 °F - 72.0 °F 84% 29.84 in 10.0 mi ENE 8.1 mph - N/A   Partly Cloudy
1:53 AM 75.9 °F - 72.0 °F 87% 29.83 in 10.0 mi ESE 5.8 mph - N/A   Clear
2:53 AM 75.9 °F - 73.0 °F 91% 29.81 in 10.0 mi East 4.6 mph - N/A   Clear
3:09 AM 75.2 °F - 73.4 °F 94% 29.83 in 10.0 mi East 4.6 mph - N/A Thunderstorm Thunderstorm
3:28 AM 75.2 °F - 73.4 °F 94% 29.84 in 1.8 mi NNE 10.4 mph - 0.21 in Rain , Thunderstorm Heavy Thunderstorms and Rain
3:53 AM 72.0 °F - 69.1 °F 91% 29.88 in 2.0 mi WNW 12.7 mph - 0.70 in Rain , Thunderstorm Heavy Thunderstorms and Rain
3:57 AM 71.6 °F - 69.8 °F 94% 29.91 in 1.0 mi WNW 8.1 mph - 0.04 in Rain , Thunderstorm Heavy Thunderstorms and Rain
4:07 AM 71.6 °F - 69.8 °F 94% 29.89 in 2.0 mi Variable 5.8 mph - 0.13 in Rain , Thunderstorm Heavy Thunderstorms and Rain
4:12 AM 71.6 °F - 69.8 °F 94% 29.89 in 3.0 mi South 4.6 mph - 0.16 in Rain , Thunderstorm Heavy Thunderstorms and Rain
4:53 AM 71.1 °F - 69.1 °F 93% 29.86 in 7.0 mi Calm Calm - 0.25 in Rain , Thunderstorm Light Rain
5:07 AM 71.6 °F - 69.8 °F 94% 29.88 in 10.0 mi Calm Calm - 0.00 in   Overcast
5:53 AM 71.1 °F - 69.1 °F 93% 29.81 in 10.0 mi Calm Calm - 0.00 in   Partly Cloudy
6:53 AM 71.1 °F - 68.0 °F 90% 29.83 in 10.0 mi SSW 4.6 mph - N/A   Clear
7:53 AM 72.0 °F - 69.1 °F 91% 29.86 in 10.0 mi ESE 8.1 mph - N/A   Clear
8:53 AM 73.9 °F - 70.0 °F 87% 29.88 in 10.0 mi SE 3.5 mph - N/A   Clear
9:53 AM 75.0 °F - 70.0 °F 84% 29.89 in 10.0 mi Variable 4.6 mph - N/A   Clear
10:53 AM 78.1 °F - 71.1 °F 79% 29.88 in 10.0 mi South 10.4 mph - N/A   Clear
11:53 AM 81.0 °F 84.4 °F 70.0 °F 69% 29.87 in 10.0 mi South 11.5 mph 18.4 mph N/A   Clear
12:53 PM 82.9 °F 87.0 °F 70.0 °F 65% 29.86 in 10.0 mi SW 6.9 mph - N/A   Clear
1:53 PM 84.9 °F 89.4 °F 70.0 °F 61% 29.85 in 10.0 mi SW 9.2 mph - N/A   Partly Cloudy
2:53 PM 86.0 °F 91.5 °F 71.1 °F 61% 29.82 in 10.0 mi SSW 10.4 mph 19.6 mph N/A   Clear
3:53 PM 87.1 °F 92.8 °F 71.1 °F 59% 29.80 in 10.0 mi South 8.1 mph - N/A   Clear
4:53 PM 86.0 °F 92.2 °F 72.0 °F 63% 29.81 in 10.0 mi SSW 8.1 mph - N/A   Clear
5:53 PM 87.1 °F 94.5 °F 73.0 °F 63% 29.81 in 10.0 mi SSW 8.1 mph - N/A   Clear
6:53 PM 84.9 °F 91.4 °F 73.0 °F 67% 29.80 in 10.0 mi South 3.5 mph - N/A   Clear
7:53 PM 84.0 °F 90.2 °F 73.0 °F 69% 29.80 in 10.0 mi South 5.8 mph - N/A   Clear
8:53 PM 82.0 °F 87.9 °F 73.9 °F 76% 29.81 in 10.0 mi SE 3.5 mph - N/A   Clear
9:53 PM 80.1 °F 84.5 °F 73.9 °F 81% 29.83 in 10.0 mi ESE 3.5 mph - N/A   Clear
10:53 PM 80.1 °F 85.1 °F 75.0 °F 85% 29.84 in 10.0 mi SE 3.5 mph - N/A   Clear
11:53 PM 79.0 °F - 73.9 °F 84% 29.84 in 10.0 mi SE 4.6 mph - N/A   Partly Cloudy